Location: ???????
(60.4260°N, 46.9069°E)
Time: 22:11:04
(UTC+00:00)

Meteor 2-6 Rocket - Pass Details

Date: 30 March 2020
Orbit: 808 x 913 km, 81.3° (Epoch: 22 May)

Event Time Altitude Azimuth Distance (km) Brightness Sun altitude
Exits shadow 00:28:07 19° 218° (SW) 1,869 5.4 -13.8°
Maximum altitude 00:32:00 59° 293° (WNW) 940 4.3 -13.4°
Drops below altitude 10° 00:37:22 10° 13° (NNE) 2,408 7.3 -12.9°
Sets 00:39:48 0° 18° (NNE) 3,344 8.2 -12.6°
